| time (UTC) | temp F | wind direction | speed MPH | gust MPH | rain 1hr in | rain 24hr in | rain mn in | humidity % | barometer mb |
| 20260831115207 | 68 | 217 | 17.0 | 29.0 | 0.00 | 0.00 | 0.00 | 61 | 1008.7 |
| 20260831113707 | 68 | 211 | 15.0 | 26.0 | 0.00 | 0.00 | 0.00 | 61 | 1008.6 |
| 20260831112206 | 68 | 200 | 11.0 | 22.0 | 0.00 | 0.00 | 0.00 | 62 | 1008.3 |
| 20260831110706 | 68 | 206 | 13.0 | 22.0 | 0.00 | 0.00 | 0.00 | 62 | 1008.4 |
| 20260831105204 | 69 | 210 | 13.0 | 20.0 | 0.00 | 0.00 | 0.00 | 61 | 1008.5 |
| 20260831103705 | 66 | 213 | 15.0 | 26.0 | 0.00 | 0.00 | 0.00 | 67 | 1008.7 |
| 20260831102204 | 66 | 221 | 13.0 | 26.0 | 0.00 | 0.00 | 0.00 | 67 | 1008.8 |
| 20260831100705 | 68 | 219 | 13.0 | 26.0 | 0.00 | 0.00 | 0.00 | 68 | 1008.9 |
| 20260831095203 | 66 | 206 | 15.0 | 24.0 | 0.00 | 0.00 | 0.00 | 70 | 1009.0 |
| 20260831093704 | 66 | 210 | 13.0 | 22.0 | 0.00 | 0.00 | 0.00 | 71 | 1008.9 |
| 20260831092200 | 64 | 209 | 13.0 | 22.0 | 0.00 | 0.00 | 0.00 | 72 | 1009.0 |
| 20260831090700 | 64 | 213 | 15.0 | 22.0 | 0.00 | 0.00 | 0.00 | 73 | 1009.0 |
| 20260831085159 | 64 | 207 | 15.0 | 24.0 | 0.00 | 0.00 | 0.00 | 72 | 1009.0 |
| 20260831083659 | 64 | 209 | 13.0 | 24.0 | 0.00 | 0.00 | 0.00 | 73 | 1009.1 |
| 20260831082159 | 64 | 213 | 15.0 | 24.0 | 0.00 | 0.00 | 0.00 | 74 | 1008.9 |
| 20260831080658 | 64 | 212 | 13.0 | 22.0 | 0.00 | 0.00 | 0.00 | 75 | 1008.9 |
| 20260831075158 | 64 | 208 | 11.0 | 17.0 | 0.00 | 0.00 | 0.00 | 76 | 1009.1 |
| 20260831073658 | 62 | 207 | 13.0 | 20.0 | 0.00 | 0.00 | 0.00 | 78 | 1009.1 |
| 20260831072157 | 62 | 217 | 11.0 | 20.0 | 0.00 | 0.00 | 0.00 | 80 | 1009.2 |
| 20260831070656 | 62 | 213 | 13.0 | 20.0 | 0.00 | 0.00 | 0.00 | 80 | 1009.1 |
| 20260831065156 | 62 | 208 | 11.0 | 20.0 | 0.00 | 0.00 | 0.00 | 82 | 1008.9 |
| 20260831063656 | 62 | 201 | 11.0 | 20.0 | 0.00 | 0.00 | 0.00 | 82 | 1008.7 |
| 20260831062155 | 60 | 197 | 11.0 | 20.0 | 0.00 | 0.00 | 0.00 | 82 | 1008.8 |
| 20260831060655 | 60 | 198 | 11.0 | 15.0 | 0.00 | 0.00 | 0.00 | 83 | 1008.7 |
| 20260831055154 | 60 | 200 | 8.0 | 15.0 | 0.00 | 0.00 | 0.00 | 84 | 1008.7 |
| 20260831053654 | 60 | 204 | 8.0 | 17.0 | 0.00 | 0.00 | 0.00 | 85 | 1008.7 |
| 20260831052154 | 60 | 197 | 8.0 | 17.0 | 0.00 | 0.00 | 0.00 | 84 | 1008.5 |
| 20260831050654 | 60 | 194 | 8.0 | 15.0 | 0.00 | 0.00 | 0.00 | 84 | 1008.6 |
| 20260831045153 | 60 | 197 | 11.0 | 15.0 | 0.00 | 0.00 | 0.00 | 84 | 1008.6 |
| 20260831043654 | 60 | 194 | 11.0 | 15.0 | 0.00 | 0.00 | 0.00 | 84 | 1008.5 |
| 20260831042153 | 60 | 186 | 8.0 | 13.0 | 0.00 | 0.00 | 0.00 | 83 | 1008.5 |
| 20260831040653 | 60 | 187 | 6.0 | 13.0 | 0.00 | 0.00 | 0.00 | 83 | 1008.6 |
| 20260831035153 | 60 | 186 | 6.0 | 11.0 | 0.00 | 0.00 | 0.00 | 84 | 1008.8 |
| 20260831033653 | 59 | 181 | 6.0 | 8.0 | 0.00 | 0.00 | 0.00 | 86 | 1008.7 |
| 20260831032153 | 59 | 181 | 4.0 | 6.0 | 0.00 | 0.00 | 0.00 | 87 | 1008.6 |
| 20260831030653 | 59 | 189 | 4.0 | 6.0 | 0.00 | 0.00 | 0.00 | 87 | 1008.7 |
| 20260831025152 | 59 | 193 | 4.0 | 8.0 | 0.00 | 0.00 | 0.00 | 86 | 1008.7 |
| 20260831023652 | 60 | 170 | 6.0 | 8.0 | 0.00 | 0.00 | 0.00 | 85 | 1008.7 |
| 20260831022152 | 60 | 172 | 6.0 | 8.0 | 0.00 | 0.00 | 0.00 | 84 | 1008.7 |
| 20260831020653 | 60 | 172 | 6.0 | 8.0 | 0.00 | 0.00 | 0.00 | 84 | 1008.8 |
| 20260831015152 | 60 | 184 | 6.0 | 8.0 | 0.00 | 0.00 | 0.00 | 84 | 1009.0 |
| 20260831013652 | 60 | 179 | 4.0 | 8.0 | 0.00 | 0.00 | 0.00 | 83 | 1009.0 |
| 20260831012152 | 62 | 177 | 6.0 | 11.0 | 0.00 | 0.00 | 0.00 | 81 | 1009.2 |
| 20260831010652 | 62 | 183 | 6.0 | 13.0 | 0.00 | 0.00 | 0.00 | 80 | 1009.4 |
| 20260831005151 | 60 | 170 | 6.0 | 8.0 | 0.00 | 0.00 | 0.00 | 83 | 1009.6 |
| 20260831003651 | 60 | 169 | 6.0 | 6.0 | 0.00 | 0.00 | 0.00 | 83 | 1009.5 |
| 20260831002151 | 60 | 163 | 6.0 | 6.0 | 0.00 | 0.00 | 0.00 | 84 | 1009.5 |
| 20260831000651 | 60 | 160 | 4.0 | 6.0 | 0.00 | 0.00 | 0.00 | 84 | 1009.6 |
| 20260830235151 | 60 | 155 | 4.0 | 6.0 | 0.00 | 0.00 | 0.00 | 83 | 1009.7 |
| 20260830233651 | 60 | 179 | 2.0 | 6.0 | 0.00 | 0.00 | 0.00 | 82 | 1009.7 |
| 20260830232150 | 62 | 180 | 4.0 | 6.0 | 0.00 | 0.00 | 0.00 | 81 | 1009.9 |
| 20260830230650 | 62 | 175 | 4.0 | 6.0 | 0.00 | 0.00 | 0.00 | 82 | 1010.0 |
| 20260830225150 | 60 | 176 | 4.0 | 6.0 | 0.00 | 0.00 | 0.00 | 84 | 1010.2 |
| 20260830223650 | 60 | 155 | 4.0 | 6.0 | 0.00 | 0.00 | 0.00 | 88 | 1010.4 |
| 20260830222149 | 60 | 150 | 4.0 | 6.0 | 0.00 | 0.00 | 0.00 | 87 | 1010.5 |
| 20260830220649 | 60 | 156 | 4.0 | 6.0 | 0.00 | 0.00 | 0.00 | 88 | 1010.7 |
| 20260830215149 | 60 | 151 | 4.0 | 6.0 | 0.00 | 0.00 | 0.00 | 88 | 1010.6 |
| 20260830213649 | 59 | 145 | 4.0 | 6.0 | 0.00 | 0.00 | 0.00 | 90 | 1010.8 |
| 20260830212148 | 59 | 153 | 4.0 | 4.0 | 0.00 | 0.00 | 0.00 | 93 | 1010.9 |
| 20260830210648 | 59 | 146 | 2.0 | 4.0 | 0.00 | 0.00 | 0.00 | 95 | 1011.1 |
| 20260830205148 | 59 | 150 | 2.0 | 4.0 | 0.00 | 0.00 | 0.00 | 94 | 1011.1 |
| 20260830203648 | 57 | 146 | 4.0 | 4.0 | 0.00 | 0.00 | 0.00 | 94 | 1011.1 |
| 20260830202148 | 57 | 146 | 4.0 | 4.0 | 0.00 | 0.00 | 0.00 | 94 | 1011.1 |
| 20260830200648 | 57 | 135 | 2.0 | 2.0 | 0.00 | 0.00 | 0.00 | 95 | 1011.2 |
| 20260830195147 | 59 | 57 | 0.0 | 0.0 | 0.00 | 0.00 | 0.00 | 95 | 1011.3 |
| 20260830193647 | 59 | 128 | 0.0 | 2.0 | 0.00 | 0.00 | 0.00 | 95 | 1011.4 |
| 20260830192146 | 60 | 129 | 0.0 | 2.0 | 0.00 | 0.00 | 0.00 | 95 | 1011.5 |
| 20260830190646 | 60 | 87 | 0.0 | 2.0 | 0.00 | 0.00 | 0.00 | 93 | 1011.4 |
| 20260830185146 | 62 | 192 | 2.0 | 4.0 | 0.00 | 0.00 | 0.00 | 87 | 1011.4 |
| 20260830183646 | 62 | 196 | 4.0 | 4.0 | 0.00 | 0.00 | 0.00 | 84 | 1011.4 |
| 20260830182145 | 64 | 197 | 4.0 | 6.0 | 0.00 | 0.00 | 0.00 | 83 | 1011.3 |
| 20260830180645 | 66 | 189 | 4.0 | 6.0 | 0.00 | 0.00 | 0.00 | 83 | 1011.3 |
| 20260830175144 | 66 | 172 | 2.0 | 4.0 | 0.00 | 0.00 | 0.00 | 88 | 1011.3 |
| 20260830173645 | 66 | 177 | 2.0 | 4.0 | 0.00 | 0.00 | 0.00 | 88 | 1011.4 |
| 20260830172144 | 66 | 181 | 2.0 | 2.0 | 0.00 | 0.00 | 0.00 | 89 | 1011.4 |
| 20260830170644 | 66 | 165 | 0.0 | 2.0 | 0.00 | 0.00 | 0.00 | 89 | 1011.4 |
| 20260830165143 | 66 | 178 | 2.0 | 4.0 | 0.00 | 0.00 | 0.00 | 88 | 1011.4 |
| 20260830163643 | 66 | 208 | 2.0 | 4.0 | 0.00 | 0.00 | 0.00 | 89 | 1011.5 |
| 20260830162142 | 66 | 241 | 4.0 | 6.0 | 0.05 | 0.00 | 0.00 | 87 | 1011.5 |
| 20260830160642 | 66 | 248 | 4.0 | 8.0 | 0.00 | 0.00 | 0.00 | 82 | 1011.4 |
| 20260830155142 | 68 | 267 | 4.0 | 8.0 | 0.00 | 0.00 | 0.00 | 84 | 1011.5 |
| 20260830153641 | 66 | 286 | 2.0 | 8.0 | 0.00 | 0.00 | 0.00 | 83 | 1011.5 |
| 20260830152140 | 64 | 271 | 4.0 | 13.0 | 0.00 | 0.00 | 0.00 | 86 | 1011.6 |
| 20260830150640 | 64 | 289 | 8.0 | 13.0 | 0.00 | 0.00 | 0.00 | 86 | 1011.6 |
| 20260830145139 | 66 | 237 | 6.0 | 13.0 | 0.00 | 0.00 | 0.00 | 85 | 1011.5 |
| 20260830143640 | 66 | 237 | 6.0 | 13.0 | 0.00 | 0.00 | 0.00 | 85 | 1011.5 |
| 20260830142139 | 66 | 214 | 4.0 | 11.0 | 0.00 | 0.00 | 0.00 | 88 | 1011.4 |
| 20260830140639 | 64 | 231 | 8.0 | 15.0 | 0.00 | 0.00 | 0.00 | 88 | 1011.4 |
| 20260830135138 | 62 | 239 | 11.0 | 22.0 | 0.01 | 0.00 | 0.00 | 91 | 1011.5 |
| 20260830133639 | 64 | 237 | 15.0 | 22.0 | 0.02 | 0.00 | 0.00 | 83 | 1011.4 |
| 20260830132138 | 66 | 213 | 11.0 | 24.0 | 0.00 | 0.00 | 0.00 | 76 | 1011.0 |
| 20260830130638 | 66 | 216 | 11.0 | 24.0 | 0.00 | 0.00 | 0.00 | 77 | 1010.9 |
| 20260830125138 | 66 | 208 | 11.0 | 20.0 | 0.00 | 0.00 | 0.00 | 80 | 1010.8 |
| 20260830123637 | 66 | 208 | 8.0 | 15.0 | 0.00 | 0.00 | 0.00 | 81 | 1010.7 |
| 20260830122136 | 66 | 216 | 11.0 | 22.0 | 0.00 | 0.00 | 0.00 | 83 | 1010.6 |
| 20260830120637 | 64 | 212 | 11.0 | 22.0 | 0.00 | 0.00 | 0.00 | 82 | 1010.5 |